Time,TemperatureF,DewpointF,PressureIn,WindDirection,WindDirectionDegrees,WindSpeedMPH,WindSpeedGustMPH,Humidity,HourlyPrecipIn,Conditions,Clouds,dailyrainin,SoftwareType,DateUTC
2013-01-13 00:05:00,30.9,14.9,30.09,ESE,102,0.0,0.0,51,0.00,,,0.00,Wunderground v.1.15,2013-01-13 08:05:00,
2013-01-13 00:10:00,30.8,14.8,30.08,East,101,0.0,0.0,51,0.00,,,0.00,Wunderground v.1.15,2013-01-13 08:10:00,
2013-01-13 00:15:00,30.7,14.7,30.09,East,99,0.0,0.0,51,0.00,,,0.00,Wunderground v.1.15,2013-01-13 08:15:00,
2013-01-13 00:21:00,30.4,14.4,30.09,East,99,0.0,0.0,51,0.00,,,0.00,Wunderground v.1.15,2013-01-13 08:21:00,
2013-01-13 00:26:00,30.2,14.2,30.08,East,101,0.0,0.0,51,0.00,,,0.00,Wunderground v.1.15,2013-01-13 08:26:00,
2013-01-13 00:31:00,29.9,13.9,30.09,East,101,0.0,0.0,51,0.00,,,0.00,Wunderground v.1.15,2013-01-13 08:31:00,
2013-01-13 00:36:00,29.8,14.3,30.08,East,99,0.0,0.0,52,0.00,,,0.00,Wunderground v.1.15,2013-01-13 08:36:00,
2013-01-13 00:42:00,29.6,14.1,30.08,East,99,0.0,0.0,52,0.00,,,0.00,Wunderground v.1.15,2013-01-13 08:42:00,
2013-01-13 00:47:00,29.4,13.9,30.09,East,99,0.0,0.0,52,0.00,,,0.00,Wunderground v.1.15,2013-01-13 08:47:00,
2013-01-13 00:52:00,29.3,14.3,30.09,East,100,0.0,0.0,53,0.00,,,0.00,Wunderground v.1.15,2013-01-13 08:52:00,
2013-01-13 00:58:00,29.5,14.5,30.09,ESE,103,0.0,0.0,53,0.00,,,0.00,Wunderground v.1.15,2013-01-13 08:58:00,
2013-01-13 01:03:00,29.7,14.6,30.09,ESE,104,0.0,0.0,53,0.00,,,0.00,Wunderground v.1.15,2013-01-13 09:03:00,
2013-01-13 01:08:00,29.9,14.4,30.09,ESE,106,0.0,0.0,52,0.00,,,0.00,Wunderground v.1.15,2013-01-13 09:08:00,
2013-01-13 01:14:00,30.1,14.6,30.09,ESE,106,0.0,0.0,52,0.00,,,0.00,Wunderground v.1.15,2013-01-13 09:14:00,
2013-01-13 01:19:00,30.1,14.6,30.09,ESE,106,0.0,0.0,52,0.00,,,0.00,Wunderground v.1.15,2013-01-13 09:19:00,
2013-01-13 01:24:00,30.1,14.6,30.09,East,82,0.0,0.0,52,0.00,,,0.00,Wunderground v.1.15,2013-01-13 09:24:00,
2013-01-13 01:29:00,30.4,14.9,30.09,East,94,0.0,0.0,52,0.00,,,0.00,Wunderground v.1.15,2013-01-13 09:29:00,
2013-01-13 01:35:00,30.4,14.9,30.09,East,90,0.0,0.0,52,0.00,,,0.00,Wunderground v.1.15,2013-01-13 09:35:00,
2013-01-13 01:40:00,30.6,14.6,30.09,East,90,0.0,0.0,51,0.00,,,0.00,Wunderground v.1.15,2013-01-13 09:40:00,
2013-01-13 01:46:00,30.8,14.8,30.09,East,90,0.0,0.0,51,0.00,,,0.00,Wunderground v.1.15,2013-01-13 09:46:00,
2013-01-13 01:52:00,31.0,15.0,30.09,East,87,1.0,1.0,51,0.00,,,0.00,Wunderground v.1.15,2013-01-13 09:52:00,
2013-01-13 01:57:00,31.2,15.2,30.09,East,87,0.0,1.0,51,0.00,,,0.00,Wunderground v.1.15,2013-01-13 09:57:00,
2013-01-13 02:02:00,31.3,14.8,30.09,East,89,0.0,0.0,50,0.00,,,0.00,Wunderground v.1.15,2013-01-13 10:02:00,
2013-01-13 02:07:00,31.2,14.7,30.09,East,89,0.0,0.0,50,0.00,,,0.00,Wunderground v.1.15,2013-01-13 10:07:00,
2013-01-13 02:12:00,31.0,14.5,30.09,East,89,0.0,0.0,50,0.00,,,0.00,Wunderground v.1.15,2013-01-13 10:12:00,
2013-01-13 02:17:00,30.8,14.8,30.09,East,87,0.0,0.0,51,0.00,,,0.00,Wunderground v.1.15,2013-01-13 10:17:00,
2013-01-13 02:22:00,30.7,14.7,30.09,East,87,0.0,0.0,51,0.00,,,0.00,Wunderground v.1.15,2013-01-13 10:22:00,
2013-01-13 02:27:00,30.8,14.3,30.09,ESE,107,1.0,2.0,50,0.00,,,0.00,Wunderground v.1.15,2013-01-13 10:27:00,
2013-01-13 02:32:00,31.5,14.5,30.09,East,86,0.0,7.0,49,0.00,,,0.00,Wunderground v.1.15,2013-01-13 10:32:00,
2013-01-13 02:37:00,32.0,14.5,30.09,East,86,2.0,7.0,48,0.00,,,0.00,Wunderground v.1.15,2013-01-13 10:37:00,
2013-01-13 02:42:00,32.4,14.4,30.09,ESE,109,4.0,4.0,47,0.00,,,0.00,Wunderground v.1.15,2013-01-13 10:42:00,
2013-01-13 02:47:00,32.7,14.7,30.08,East,101,3.0,5.0,47,0.00,,,0.00,Wunderground v.1.15,2013-01-13 10:47:00,
2013-01-13 02:52:00,32.9,14.4,30.08,ENE,60,3.0,3.0,46,0.00,,,0.00,Wunderground v.1.15,2013-01-13 10:52:00,
2013-01-13 02:57:00,33.0,14.4,30.08,East,98,2.0,5.0,46,0.00,,,0.00,Wunderground v.1.15,2013-01-13 10:57:00,
2013-01-13 03:02:00,32.9,14.4,30.08,ESE,113,2.0,3.0,46,0.00,,,0.00,Wunderground v.1.15,2013-01-13 11:02:00,
2013-01-13 03:07:00,32.9,14.4,30.08,East,96,0.0,3.0,46,0.00,,,0.00,Wunderground v.1.15,2013-01-13 11:07:00,
2013-01-13 03:12:00,32.9,14.4,30.08,East,84,2.0,2.0,46,0.00,,,0.00,Wunderground v.1.15,2013-01-13 11:12:00,
2013-01-13 03:17:00,32.8,14.3,30.08,East,101,1.0,3.0,46,0.00,,,0.00,Wunderground v.1.15,2013-01-13 11:17:00,
2013-01-13 03:22:00,32.8,13.8,30.08,ESE,114,0.0,2.0,45,0.00,,,0.00,Wunderground v.1.15,2013-01-13 11:22:00,
2013-01-13 03:27:00,32.7,13.7,30.08,East,94,0.0,2.0,45,0.00,,,0.00,Wunderground v.1.15,2013-01-13 11:27:00,
2013-01-13 03:32:00,32.6,13.6,30.08,East,86,0.0,0.0,45,0.00,,,0.00,Wunderground v.1.15,2013-01-13 11:32:00,
2013-01-13 03:37:00,32.4,13.4,30.08,East,96,0.0,3.0,45,0.00,,,0.00,Wunderground v.1.15,2013-01-13 11:37:00,
2013-01-13 03:43:00,32.2,13.2,30.08,East,88,0.0,3.0,45,0.00,,,0.00,Wunderground v.1.15,2013-01-13 11:43:00,
2013-01-13 03:48:00,32.1,13.1,30.08,East,79,2.0,3.0,45,0.00,,,0.00,Wunderground v.1.15,2013-01-13 11:48:00,
2013-01-13 03:53:00,32.0,13.0,30.08,East,101,0.0,2.0,45,0.00,,,0.00,Wunderground v.1.15,2013-01-13 11:53:00,
2013-01-13 03:58:00,31.8,12.8,30.08,East,80,0.0,2.0,45,0.00,,,0.00,Wunderground v.1.15,2013-01-13 11:58:00,
2013-01-13 04:03:00,31.7,12.8,30.09,East,84,0.0,4.0,45,0.00,,,0.00,Wunderground v.1.15,2013-01-13 12:03:00,
2013-01-13 04:08:00,31.7,12.8,30.09,East,101,0.0,4.0,45,0.00,,,0.00,Wunderground v.1.15,2013-01-13 12:08:00,
2013-01-13 04:13:00,31.6,12.7,30.09,East,92,1.0,2.0,45,0.00,,,0.00,Wunderground v.1.15,2013-01-13 12:13:00,
2013-01-13 04:18:00,31.5,12.6,30.09,East,94,3.0,3.0,45,0.00,,,0.00,Wunderground v.1.15,2013-01-13 12:18:00,
2013-01-13 04:23:00,31.5,12.1,30.09,ESE,103,0.0,3.0,44,0.00,,,0.00,Wunderground v.1.15,2013-01-13 12:23:00,
2013-01-13 04:28:00,31.4,12.0,30.09,ESE,117,0.0,3.0,44,0.00,,,0.00,Wunderground v.1.15,2013-01-13 12:28:00,
2013-01-13 04:33:00,31.2,12.3,30.10,ESE,117,0.0,0.0,45,0.00,,,0.00,Wunderground v.1.15,2013-01-13 12:33:00,
2013-01-13 04:38:00,31.1,11.7,30.10,East,96,0.0,0.0,44,0.00,,,0.00,Wunderground v.1.15,2013-01-13 12:38:00,
2013-01-13 04:43:00,31.2,11.8,30.10,ESE,115,0.0,4.0,44,0.00,,,0.00,Wunderground v.1.15,2013-01-13 12:43:00,
2013-01-13 04:48:00,31.4,12.0,30.10,ESE,106,0.0,4.0,44,0.00,,,0.00,Wunderground v.1.15,2013-01-13 12:48:00,
2013-01-13 04:53:00,31.4,11.5,30.11,ESE,105,0.0,4.0,43,0.00,,,0.00,Wunderground v.1.15,2013-01-13 12:53:00,
2013-01-13 04:58:00,31.5,11.5,30.10,ESE,105,0.0,4.0,43,0.00,,,0.00,Wunderground v.1.15,2013-01-13 12:58:00,
2013-01-13 05:03:00,31.5,11.5,30.13,East,84,1.0,4.0,43,0.00,,,0.00,Wunderground v.1.15,2013-01-13 13:03:00,
2013-01-13 05:08:00,31.6,11.6,30.13,ESE,113,0.0,4.0,43,0.00,,,0.00,Wunderground v.1.15,2013-01-13 13:08:00,
2013-01-13 05:13:00,31.6,11.1,30.13,East,101,0.0,4.0,42,0.00,,,0.00,Wunderground v.1.15,2013-01-13 13:13:00,
2013-01-13 05:18:00,31.7,11.2,30.13,East,98,0.0,4.0,42,0.00,,,0.00,Wunderground v.1.15,2013-01-13 13:18:00,
2013-01-13 05:23:00,31.7,11.2,30.13,ESE,121,1.0,3.0,42,0.00,,,0.00,Wunderground v.1.15,2013-01-13 13:23:00,
2013-01-13 05:28:00,31.6,10.6,30.13,East,91,1.0,5.0,41,0.00,,,0.00,Wunderground v.1.15,2013-01-13 13:28:00,
2013-01-13 05:33:00,31.5,10.5,30.14,ESE,102,0.0,3.0,41,0.00,,,0.00,Wunderground v.1.15,2013-01-13 13:33:00,
2013-01-13 05:38:00,31.5,10.5,30.14,East,86,0.0,3.0,41,0.00,,,0.00,Wunderground v.1.15,2013-01-13 13:38:00,
2013-01-13 05:43:00,31.4,10.4,30.15,SE,124,0.0,1.0,41,0.00,,,0.00,Wunderground v.1.15,2013-01-13 13:43:00,
2013-01-13 05:48:00,31.4,10.4,30.15,East,88,0.0,3.0,41,0.00,,,0.00,Wunderground v.1.15,2013-01-13 13:48:00,
2013-01-13 05:53:00,31.5,10.5,30.14,ESE,111,0.0,4.0,41,0.00,,,0.00,Wunderground v.1.15,2013-01-13 13:53:00,
2013-01-13 05:58:00,31.4,10.4,30.15,ENE,63,0.0,4.0,41,0.00,,,0.00,Wunderground v.1.15,2013-01-13 13:58:00,
2013-01-13 06:03:00,31.1,10.6,30.16,East,80,0.0,1.0,42,0.00,,,0.00,Wunderground v.1.15,2013-01-13 14:03:00,
2013-01-13 06:08:00,30.7,10.8,30.16,East,94,0.0,1.0,43,0.00,,,0.00,Wunderground v.1.15,2013-01-13 14:08:00,
2013-01-13 06:13:00,30.5,10.6,30.16,East,96,0.0,1.0,43,0.00,,,0.00,Wunderground v.1.15,2013-01-13 14:13:00,
2013-01-13 06:18:00,30.3,11.0,30.16,NE,47,0.0,2.0,44,0.00,,,0.00,Wunderground v.1.15,2013-01-13 14:18:00,
2013-01-13 06:23:00,30.4,11.1,30.16,East,92,0.0,4.0,44,0.00,,,0.00,Wunderground v.1.15,2013-01-13 14:23:00,
2013-01-13 06:28:00,30.6,10.7,30.16,East,80,1.0,4.0,43,0.00,,,0.00,Wunderground v.1.15,2013-01-13 14:28:00,
2013-01-13 06:33:00,30.8,10.9,30.16,ESE,105,0.0,3.0,43,0.00,,,0.00,Wunderground v.1.15,2013-01-13 14:33:00,
2013-01-13 06:38:00,30.6,10.7,30.17,ESE,105,0.0,3.0,43,0.00,,,0.00,Wunderground v.1.15,2013-01-13 14:38:00,
2013-01-13 06:43:00,30.5,10.6,30.17,East,94,0.0,2.0,43,0.00,,,0.00,Wunderground v.1.15,2013-01-13 14:43:00,
2013-01-13 06:48:00,30.4,10.5,30.17,ESE,105,0.0,2.0,43,0.00,,,0.00,Wunderground v.1.15,2013-01-13 14:48:00,
2013-01-13 06:53:00,30.4,10.5,30.17,East,90,0.0,3.0,43,0.00,,,0.00,Wunderground v.1.15,2013-01-13 14:53:00,
2013-01-13 06:58:00,30.5,10.6,30.17,East,88,2.0,3.0,43,0.00,,,0.00,Wunderground v.1.15,2013-01-13 14:58:00,
2013-01-13 07:03:00,30.7,10.8,30.17,East,83,0.0,3.0,43,0.00,,,0.00,Wunderground v.1.15,2013-01-13 15:03:00,
2013-01-13 07:08:00,30.7,10.8,30.17,East,99,0.0,3.0,43,0.00,,,0.00,Wunderground v.1.15,2013-01-13 15:08:00,
2013-01-13 07:13:00,30.7,10.8,30.17,East,95,0.0,2.0,43,0.00,,,0.00,Wunderground v.1.15,2013-01-13 15:13:00,
2013-01-13 07:18:00,30.6,11.2,30.17,East,82,0.0,2.0,44,0.00,,,0.00,Wunderground v.1.15,2013-01-13 15:18:00,
2013-01-13 07:23:00,30.5,11.1,30.17,East,101,0.0,4.0,44,0.00,,,0.00,Wunderground v.1.15,2013-01-13 15:23:00,
2013-01-13 07:28:00,30.9,11.5,30.17,East,94,0.0,4.0,44,0.00,,,0.00,Wunderground v.1.15,2013-01-13 15:28:00,
2013-01-13 07:33:00,31.9,11.9,30.18,ENE,76,1.0,2.0,43,0.00,,,0.00,Wunderground v.1.15,2013-01-13 15:33:00,
2013-01-13 07:38:00,32.9,11.7,30.17,East,92,0.0,2.0,41,0.00,,,0.00,Wunderground v.1.15,2013-01-13 15:38:00,
2013-01-13 07:43:00,33.8,12.0,30.18,East,99,0.0,1.0,40,0.00,,,0.00,Wunderground v.1.15,2013-01-13 15:43:00,
2013-01-13 07:48:00,34.4,12.0,30.17,ESE,121,0.0,1.0,39,0.00,,,0.00,Wunderground v.1.15,2013-01-13 15:48:00,
2013-01-13 07:53:00,35.1,12.6,30.17,East,80,0.0,0.0,39,0.00,,,0.00,Wunderground v.1.15,2013-01-13 15:53:00,
2013-01-13 07:58:00,35.8,12.0,30.17,East,90,0.0,0.0,37,0.00,,,0.00,Wunderground v.1.15,2013-01-13 15:58:00,
2013-01-13 08:03:00,36.4,11.9,30.17,ESE,109,0.0,3.0,36,0.00,,,0.00,Wunderground v.1.15,2013-01-13 16:03:00,
2013-01-13 08:08:00,36.8,11.7,30.17,ESE,105,0.0,5.0,35,0.00,,,0.00,Wunderground v.1.15,2013-01-13 16:08:00,
2013-01-13 08:13:00,37.0,11.2,30.17,ESE,108,0.0,4.0,34,0.00,,,0.00,Wunderground v.1.15,2013-01-13 16:13:00,
2013-01-13 08:18:00,37.4,11.5,30.17,ESE,111,0.0,4.0,34,0.00,,,0.00,Wunderground v.1.15,2013-01-13 16:18:00,
2013-01-13 08:23:00,37.6,11.7,30.17,ESE,114,1.0,4.0,34,0.00,,,0.00,Wunderground v.1.15,2013-01-13 16:23:00,
2013-01-13 08:28:00,37.7,11.1,30.17,ESE,109,2.0,4.0,33,0.00,,,0.00,Wunderground v.1.15,2013-01-13 16:28:00,
2013-01-13 08:33:00,37.7,11.1,30.16,ESE,105,3.0,3.0,33,0.00,,,0.00,Wunderground v.1.15,2013-01-13 16:33:00,
2013-01-13 08:38:00,38.0,11.4,30.16,East,101,0.0,5.0,33,0.00,,,0.00,Wunderground v.1.15,2013-01-13 16:38:00,
2013-01-13 08:43:00,38.1,10.8,30.17,ESE,113,0.0,7.0,32,0.00,,,0.00,Wunderground v.1.15,2013-01-13 16:43:00,
2013-01-13 08:48:00,38.3,11.0,30.17,East,88,3.0,7.0,32,0.00,,,0.00,Wunderground v.1.15,2013-01-13 16:48:00,
2013-01-13 08:54:00,38.4,11.8,30.16,East,98,1.0,5.0,33,0.00,,,0.00,Wunderground v.1.15,2013-01-13 16:54:00,
2013-01-13 08:59:00,38.9,11.5,30.16,ESE,107,5.0,5.0,32,0.00,,,0.00,Wunderground v.1.15,2013-01-13 16:59:00,
2013-01-13 09:04:00,38.9,10.8,30.17,ESE,115,2.0,9.0,31,0.00,,,0.00,Wunderground v.1.15,2013-01-13 17:04:00,
2013-01-13 09:09:00,39.0,10.9,30.17,ESE,102,0.0,9.0,31,0.00,,,0.00,Wunderground v.1.15,2013-01-13 17:09:00,
2013-01-13 09:14:00,39.2,11.0,30.17,ESE,103,0.0,6.0,31,0.00,,,0.00,Wunderground v.1.15,2013-01-13 17:14:00,
2013-01-13 09:19:00,39.6,12.1,30.17,ESE,105,0.0,7.0,32,0.00,,,0.00,Wunderground v.1.15,2013-01-13 17:19:00,
2013-01-13 09:24:00,39.9,11.7,30.15,ESE,113,4.0,5.0,31,0.00,,,0.00,Wunderground v.1.15,2013-01-13 17:24:00,
2013-01-13 09:29:00,39.8,11.6,30.16,East,99,3.0,7.0,31,0.00,,,0.00,Wunderground v.1.15,2013-01-13 17:29:00,
2013-01-13 09:34:00,40.0,11.8,30.16,ESE,103,0.0,6.0,31,0.00,,,0.00,Wunderground v.1.15,2013-01-13 17:34:00,
2013-01-13 09:39:00,40.1,11.8,30.16,NE,53,0.0,6.0,31,0.00,,,0.00,Wunderground v.1.15,2013-01-13 17:39:00,
2013-01-13 09:44:00,40.5,12.2,30.16,ESE,107,0.0,6.0,31,0.00,,,0.00,Wunderground v.1.15,2013-01-13 17:44:00,
2013-01-13 09:49:00,40.8,12.5,30.16,ESE,109,5.0,9.0,31,0.00,,,0.00,Wunderground v.1.15,2013-01-13 17:49:00,
2013-01-13 09:54:00,40.9,12.5,30.16,ENE,76,4.0,5.0,31,0.00,,,0.00,Wunderground v.1.15,2013-01-13 17:54:00,
2013-01-13 09:59:00,40.9,11.8,30.16,East,88,0.0,8.0,30,0.00,,,0.00,Wunderground v.1.15,2013-01-13 17:59:00,
2013-01-13 10:04:00,41.0,12.6,30.16,ESE,110,3.0,7.0,31,0.00,,,0.00,Wunderground v.1.15,2013-01-13 18:04:00,
2013-01-13 10:09:00,41.1,12.0,30.15,ESE,110,2.0,7.0,30,0.00,,,0.00,Wunderground v.1.15,2013-01-13 18:09:00,
2013-01-13 10:14:00,41.2,12.1,30.15,ENE,71,2.0,6.0,30,0.00,,,0.00,Wunderground v.1.15,2013-01-13 18:14:00,
2013-01-13 10:19:00,41.4,13.0,30.15,ESE,106,0.0,7.0,31,0.00,,,0.00,Wunderground v.1.15,2013-01-13 18:19:00,
2013-01-13 10:24:00,41.8,12.6,30.14,ESE,109,4.0,5.0,30,0.00,,,0.00,Wunderground v.1.15,2013-01-13 18:24:00,
2013-01-13 10:29:00,42.1,13.6,30.14,ESE,105,0.0,7.0,31,0.00,,,0.00,Wunderground v.1.15,2013-01-13 18:29:00,
2013-01-13 10:34:00,42.1,12.8,30.14,East,79,3.0,7.0,30,0.00,,,0.00,Wunderground v.1.15,2013-01-13 18:34:00,
2013-01-13 10:39:00,42.2,12.9,30.14,East,97,0.0,7.0,30,0.00,,,0.00,Wunderground v.1.15,2013-01-13 18:39:00,
2013-01-13 10:44:00,42.5,13.2,30.13,East,94,0.0,6.0,30,0.00,,,0.00,Wunderground v.1.15,2013-01-13 18:44:00,
2013-01-13 10:49:00,42.8,13.5,30.13,ESE,113,0.0,6.0,30,0.00,,,0.00,Wunderground v.1.15,2013-01-13 18:49:00,
2013-01-13 10:54:00,43.4,14.0,30.12,East,97,0.0,5.0,30,0.00,,,0.00,Wunderground v.1.15,2013-01-13 18:54:00,
2013-01-13 10:59:00,43.9,14.4,30.12,East,100,0.0,5.0,30,0.00,,,0.00,Wunderground v.1.15,2013-01-13 18:59:00,
2013-01-13 11:04:00,44.3,14.0,30.11,East,99,0.0,1.0,29,0.00,,,0.00,Wunderground v.1.15,2013-01-13 19:04:00,
2013-01-13 11:09:00,44.8,14.4,30.10,East,86,0.0,0.0,29,0.00,,,0.00,Wunderground v.1.15,2013-01-13 19:09:00,
2013-01-13 11:14:00,44.8,13.6,30.10,East,101,0.0,0.0,28,0.00,,,0.00,Wunderground v.1.15,2013-01-13 19:14:00,
2013-01-13 11:19:00,45.0,14.6,30.09,SE,124,0.0,0.0,29,0.00,,,0.00,Wunderground v.1.15,2013-01-13 19:19:00,
2013-01-13 11:24:00,45.2,14.8,30.09,ESE,123,0.0,0.0,29,0.00,,,0.00,Wunderground v.1.15,2013-01-13 19:24:00,
2013-01-13 11:29:00,45.4,13.3,30.09,SE,128,0.0,0.0,27,0.00,,,0.00,Wunderground v.1.15,2013-01-13 19:29:00,
2013-01-13 11:34:00,45.4,14.1,30.09,SE,130,0.0,1.0,28,0.00,,,0.00,Wunderground v.1.15,2013-01-13 19:34:00,
2013-01-13 11:40:00,45.4,14.1,30.08,SSE,159,0.0,0.0,28,0.00,,,0.00,Wunderground v.1.15,2013-01-13 19:40:00,
2013-01-13 11:45:00,45.6,14.3,30.08,West,267,1.0,1.0,28,0.00,,,0.00,Wunderground v.1.15,2013-01-13 19:45:00,
2013-01-13 11:50:00,45.7,14.4,30.08,WNW,290,0.0,0.0,28,0.00,,,0.00,Wunderground v.1.15,2013-01-13 19:50:00,
2013-01-13 11:55:00,46.2,15.6,30.07,WNW,284,0.0,2.0,29,0.00,,,0.00,Wunderground v.1.15,2013-01-13 19:55:00,
2013-01-13 12:00:00,46.5,13.4,30.06,SW,224,0.0,0.0,26,0.00,,,0.00,Wunderground v.1.15,2013-01-13 20:00:00,
2013-01-13 12:05:00,45.9,12.9,30.06,SW,225,0.0,0.0,26,0.00,,,0.00,Wunderground v.1.15,2013-01-13 20:05:00,
2013-01-13 12:10:00,45.9,13.7,30.06,WSW,252,0.0,3.0,27,0.00,,,0.00,Wunderground v.1.15,2013-01-13 20:10:00,
2013-01-13 12:15:00,45.8,14.5,30.06,WNW,296,1.0,3.0,28,0.00,,,0.00,Wunderground v.1.15,2013-01-13 20:15:00,
2013-01-13 12:20:00,46.4,14.2,30.05,WSW,244,0.0,2.0,27,0.00,,,0.00,Wunderground v.1.15,2013-01-13 20:20:00,
2013-01-13 12:25:00,46.3,14.1,30.05,West,260,0.0,7.0,27,0.00,,,0.00,Wunderground v.1.15,2013-01-13 20:25:00,
2013-01-13 12:30:00,46.0,13.0,30.05,WSW,252,0.0,1.0,26,0.00,,,0.00,Wunderground v.1.15,2013-01-13 20:30:00,
2013-01-13 12:35:00,45.7,13.6,30.04,SW,218,1.0,3.0,27,0.00,,,0.00,Wunderground v.1.15,2013-01-13 20:35:00,
2013-01-13 12:40:00,45.8,14.5,30.04,West,273,0.0,0.0,28,0.00,,,0.00,Wunderground v.1.15,2013-01-13 20:40:00,
2013-01-13 12:45:00,46.5,13.4,30.04,West,277,0.0,1.0,26,0.00,,,0.00,Wunderground v.1.15,2013-01-13 20:45:00,
2013-01-13 12:50:00,46.5,14.3,30.03,West,272,0.0,4.0,27,0.00,,,0.00,Wunderground v.1.15,2013-01-13 20:50:00,
2013-01-13 12:55:00,46.7,15.3,30.03,West,267,0.0,4.0,28,0.00,,,0.00,Wunderground v.1.15,2013-01-13 20:55:00,
2013-01-13 13:00:00,47.1,13.9,30.03,South,179,1.0,1.0,26,0.00,,,0.00,Wunderground v.1.15,2013-01-13 21:00:00,
2013-01-13 13:06:00,47.1,13.9,30.03,West,268,1.0,4.0,26,0.00,,,0.00,Wunderground v.1.15,2013-01-13 21:06:00,
2013-01-13 13:11:00,46.9,14.6,30.03,West,264,1.0,1.0,27,0.00,,,0.00,Wunderground v.1.15,2013-01-13 21:11:00,
2013-01-13 13:16:00,46.9,13.7,30.03,WNW,286,0.0,6.0,26,0.00,,,0.00,Wunderground v.1.15,2013-01-13 21:16:00,
2013-01-13 13:21:00,47.0,14.7,30.03,SW,225,0.0,1.0,27,0.00,,,0.00,Wunderground v.1.15,2013-01-13 21:21:00,
2013-01-13 13:26:00,47.5,15.1,30.02,WSW,242,0.0,2.0,27,0.00,,,0.00,Wunderground v.1.15,2013-01-13 21:26:00,
2013-01-13 13:31:00,47.4,15.0,30.02,West,271,0.0,2.0,27,0.00,,,0.00,Wunderground v.1.15,2013-01-13 21:31:00,
2013-01-13 13:36:00,46.9,14.6,30.02,South,189,0.0,10.0,27,0.00,,,0.00,Wunderground v.1.15,2013-01-13 21:36:00,
2013-01-13 13:41:00,46.5,14.3,30.02,WNW,287,0.0,3.0,27,0.00,,,0.00,Wunderground v.1.15,2013-01-13 21:41:00,
2013-01-13 13:46:00,46.6,14.4,30.02,NW,325,0.0,4.0,27,0.00,,,0.00,Wunderground v.1.15,2013-01-13 21:46:00,
2013-01-13 13:51:00,46.5,13.4,30.02,West,274,0.0,2.0,26,0.00,,,0.00,Wunderground v.1.15,2013-01-13 21:51:00,
2013-01-13 13:56:00,46.6,13.5,30.02,SW,229,0.0,2.0,26,0.00,,,0.00,Wunderground v.1.15,2013-01-13 21:56:00,
2013-01-13 14:01:00,46.6,14.4,30.02,WSW,257,1.0,1.0,27,0.00,,,0.00,Wunderground v.1.15,2013-01-13 22:01:00,
2013-01-13 14:06:00,46.6,14.4,30.02,WSW,238,0.0,4.0,27,0.00,,,0.00,Wunderground v.1.15,2013-01-13 22:06:00,
2013-01-13 14:11:00,46.7,14.4,30.02,West,262,1.0,4.0,27,0.00,,,0.00,Wunderground v.1.15,2013-01-13 22:11:00,
2013-01-13 14:16:00,46.9,13.7,30.03,West,275,0.0,10.0,26,0.00,,,0.00,Wunderground v.1.15,2013-01-13 22:16:00,
2013-01-13 14:21:00,47.4,15.0,30.03,West,271,1.0,1.0,27,0.00,,,0.00,Wunderground v.1.15,2013-01-13 22:21:00,
2013-01-13 14:26:00,47.6,14.3,30.02,WSW,244,7.0,12.0,26,0.00,,,0.00,Wunderground v.1.15,2013-01-13 22:26:00,
2013-01-13 14:31:00,47.4,14.2,30.03,WSW,244,1.0,7.0,26,0.00,,,0.00,Wunderground v.1.15,2013-01-13 22:31:00,
2013-01-13 14:36:00,46.9,13.7,30.03,West,267,1.0,7.0,26,0.00,,,0.00,Wunderground v.1.15,2013-01-13 22:36:00,
2013-01-13 14:41:00,46.7,13.6,30.03,NNW,333,1.0,3.0,26,0.00,,,0.00,Wunderground v.1.15,2013-01-13 22:41:00,
2013-01-13 14:46:00,47.1,13.9,30.03,WNW,293,0.0,3.0,26,0.00,,,0.00,Wunderground v.1.15,2013-01-13 22:46:00,
2013-01-13 14:51:00,47.3,11.3,30.03,West,259,0.0,4.0,23,0.00,,,0.00,Wunderground v.1.15,2013-01-13 22:51:00,
2013-01-13 14:56:00,46.9,11.9,30.03,WSW,248,0.0,4.0,24,0.00,,,0.00,Wunderground v.1.15,2013-01-13 22:56:00,
2013-01-13 15:01:00,46.9,13.7,30.03,West,270,0.0,1.0,26,0.00,,,0.00,Wunderground v.1.15,2013-01-13 23:01:00,
2013-01-13 15:06:00,47.0,14.7,30.03,WNW,282,1.0,4.0,27,0.00,,,0.00,Wunderground v.1.15,2013-01-13 23:06:00,
2013-01-13 15:12:00,46.7,14.4,30.02,West,275,0.0,4.0,27,0.00,,,0.00,Wunderground v.1.15,2013-01-13 23:12:00,
2013-01-13 15:17:00,46.4,14.2,30.02,WNW,289,0.0,4.0,27,0.00,,,0.00,Wunderground v.1.15,2013-01-13 23:17:00,
2013-01-13 15:22:00,46.1,13.9,30.02,WNW,287,0.0,1.0,27,0.00,,,0.00,Wunderground v.1.15,2013-01-13 23:22:00,
2013-01-13 15:27:00,45.5,12.5,30.03,WSW,250,1.0,5.0,26,0.00,,,0.00,Wunderground v.1.15,2013-01-13 23:27:00,
2013-01-13 15:32:00,44.9,12.9,30.03,WSW,246,0.0,3.0,27,0.00,,,0.00,Wunderground v.1.15,2013-01-13 23:32:00,
2013-01-13 15:37:00,44.7,14.3,30.03,WSW,257,0.0,6.0,29,0.00,,,0.00,Wunderground v.1.15,2013-01-13 23:37:00,
2013-01-13 15:42:00,44.5,14.9,30.03,West,260,0.0,2.0,30,0.00,,,0.00,Wunderground v.1.15,2013-01-13 23:42:00,
2013-01-13 15:47:00,44.4,14.9,30.03,WNW,292,0.0,2.0,30,0.00,,,0.00,Wunderground v.1.15,2013-01-13 23:47:00,
2013-01-13 15:52:00,44.2,14.7,30.03,WSW,248,0.0,3.0,30,0.00,,,0.00,Wunderground v.1.15,2013-01-13 23:52:00,
2013-01-13 15:57:00,44.1,13.8,30.03,WSW,254,0.0,5.0,29,0.00,,,0.00,Wunderground v.1.15,2013-01-13 23:57:00,
2013-01-13 16:02:00,44.0,14.5,30.03,West,265,0.0,3.0,30,0.00,,,0.00,Wunderground v.1.15,2013-01-14 00:02:00,
2013-01-13 16:07:00,44.0,15.3,30.03,West,280,0.0,6.0,31,0.00,,,0.00,Wunderground v.1.15,2013-01-14 00:07:00,
2013-01-13 16:12:00,43.8,15.8,30.02,NNW,340,0.0,1.0,32,0.00,,,0.00,Wunderground v.1.15,2013-01-14 00:12:00,
2013-01-13 16:17:00,43.7,16.4,30.02,WNW,302,3.0,5.0,33,0.00,,,0.00,Wunderground v.1.15,2013-01-14 00:17:00,
2013-01-13 16:22:00,43.4,16.2,30.03,WNW,294,0.0,1.0,33,0.00,,,0.00,Wunderground v.1.15,2013-01-14 00:22:00,
2013-01-13 16:27:00,43.3,16.8,30.03,WNW,282,0.0,4.0,34,0.00,,,0.00,Wunderground v.1.15,2013-01-14 00:27:00,
2013-01-13 16:32:00,43.2,16.7,30.03,WNW,292,0.0,0.0,34,0.00,,,0.00,Wunderground v.1.15,2013-01-14 00:32:00,
2013-01-13 16:37:00,43.0,17.2,30.03,West,277,0.0,1.0,35,0.00,,,0.00,Wunderground v.1.15,2013-01-14 00:37:00,
2013-01-13 16:42:00,42.7,16.9,30.03,West,277,0.0,0.0,35,0.00,,,0.00,Wunderground v.1.15,2013-01-14 00:42:00,
2013-01-13 16:47:00,42.5,17.4,30.03,West,279,0.0,0.0,36,0.00,,,0.00,Wunderground v.1.15,2013-01-14 00:47:00,
2013-01-13 16:52:00,42.2,17.8,30.03,West,279,0.0,0.0,37,0.00,,,0.00,Wunderground v.1.15,2013-01-14 00:52:00,
2013-01-13 16:57:00,41.9,17.5,30.03,West,280,0.0,0.0,37,0.00,,,0.00,Wunderground v.1.15,2013-01-14 00:57:00,
2013-01-13 17:02:00,41.5,17.7,30.04,West,280,0.0,0.0,38,0.00,,,0.00,Wunderground v.1.15,2013-01-14 01:02:00,
2013-01-13 17:07:00,41.1,18.0,30.04,West,280,0.0,0.0,39,0.00,,,0.00,Wunderground v.1.15,2013-01-14 01:07:00,
2013-01-13 17:12:00,40.7,18.2,30.05,West,280,0.0,0.0,40,0.00,,,0.00,Wunderground v.1.15,2013-01-14 01:12:00,
2013-01-13 17:17:00,40.2,17.8,30.05,West,277,0.0,0.0,40,0.00,,,0.00,Wunderground v.1.15,2013-01-14 01:17:00,
2013-01-13 17:22:00,40.0,15.8,30.06,SSW,200,0.0,0.0,37,0.00,,,0.00,Wunderground v.1.15,2013-01-14 01:22:00,
2013-01-13 17:27:00,39.8,14.3,30.06,North,9,0.0,0.0,35,0.00,,,0.00,Wunderground v.1.15,2013-01-14 01:27:00,
2013-01-13 17:32:00,39.5,13.4,30.06,North,9,0.0,0.0,34,0.00,,,0.00,Wunderground v.1.15,2013-01-14 01:32:00,
2013-01-13 17:37:00,39.3,13.9,30.06,North,11,0.0,0.0,35,0.00,,,0.00,Wunderground v.1.15,2013-01-14 01:37:00,
2013-01-13 17:42:00,39.2,13.1,30.06,NE,44,2.0,5.0,34,0.00,,,0.00,Wunderground v.1.15,2013-01-14 01:42:00,
2013-01-13 17:47:00,39.1,13.1,30.06,East,98,0.0,5.0,34,0.00,,,0.00,Wunderground v.1.15,2013-01-14 01:47:00,
2013-01-13 17:52:00,39.1,13.7,30.06,ESE,106,0.0,0.0,35,0.00,,,0.00,Wunderground v.1.15,2013-01-14 01:52:00,
2013-01-13 17:57:00,38.9,13.5,30.06,East,91,0.0,0.0,35,0.00,,,0.00,Wunderground v.1.15,2013-01-14 01:57:00,
2013-01-13 18:02:00,38.6,13.3,30.07,East,88,0.0,0.0,35,0.00,,,0.00,Wunderground v.1.15,2013-01-14 02:02:00,
2013-01-13 18:07:00,38.3,13.6,30.07,East,88,0.0,0.0,36,0.00,,,0.00,Wunderground v.1.15,2013-01-14 02:07:00,
2013-01-13 18:12:00,38.0,13.4,30.07,East,88,0.0,0.0,36,0.00,,,0.00,Wunderground v.1.15,2013-01-14 02:12:00,
2013-01-13 18:17:00,37.7,13.1,30.08,ESE,104,0.0,0.0,36,0.00,,,0.00,Wunderground v.1.15,2013-01-14 02:17:00,
2013-01-13 18:22:00,37.4,13.5,30.07,East,97,1.0,1.0,37,0.00,,,0.00,Wunderground v.1.15,2013-01-14 02:22:00,
2013-01-13 18:27:00,37.8,13.2,30.08,ESE,111,2.0,5.0,36,0.00,,,0.00,Wunderground v.1.15,2013-01-14 02:27:00,
2013-01-13 18:32:00,38.2,12.9,30.08,SE,125,0.0,3.0,35,0.00,,,0.00,Wunderground v.1.15,2013-01-14 02:32:00,
2013-01-13 18:37:00,38.3,13.0,30.08,ESE,111,2.0,5.0,35,0.00,,,0.00,Wunderground v.1.15,2013-01-14 02:37:00,
2013-01-13 18:42:00,38.3,13.0,30.08,ESE,107,0.0,3.0,35,0.00,,,0.00,Wunderground v.1.15,2013-01-14 02:42:00,
2013-01-13 18:47:00,38.2,12.9,30.08,East,86,0.0,3.0,35,0.00,,,0.00,Wunderground v.1.15,2013-01-14 02:47:00,
2013-01-13 18:52:00,37.9,12.6,30.08,ESE,123,0.0,0.0,35,0.00,,,0.00,Wunderground v.1.15,2013-01-14 02:52:00,
2013-01-13 18:57:00,37.6,12.4,30.08,East,88,0.0,3.0,35,0.00,,,0.00,Wunderground v.1.15,2013-01-14 02:57:00,
2013-01-13 19:02:00,37.5,12.3,30.07,ENE,60,0.0,1.0,35,0.00,,,0.00,Wunderground v.1.15,2013-01-14 03:02:00,
2013-01-13 19:07:00,37.4,12.2,30.07,East,94,0.0,1.0,35,0.00,,,0.00,Wunderground v.1.15,2013-01-14 03:07:00,
2013-01-13 19:13:00,37.1,11.9,30.07,East,91,0.0,0.0,35,0.00,,,0.00,Wunderground v.1.15,2013-01-14 03:13:00,
2013-01-13 19:18:00,36.9,11.8,30.08,East,80,0.0,0.0,35,0.00,,,0.00,Wunderground v.1.15,2013-01-14 03:18:00,
2013-01-13 19:23:00,36.6,11.5,30.08,East,84,0.0,3.0,35,0.00,,,0.00,Wunderground v.1.15,2013-01-14 03:23:00,
2013-01-13 19:28:00,36.4,10.7,30.08,East,94,0.0,3.0,34,0.00,,,0.00,Wunderground v.1.15,2013-01-14 03:28:00,
2013-01-13 19:33:00,36.4,10.0,30.08,East,90,0.0,0.0,33,0.00,,,0.00,Wunderground v.1.15,2013-01-14 03:33:00,
2013-01-13 19:38:00,36.4,10.7,30.08,ESE,105,0.0,0.0,34,0.00,,,0.00,Wunderground v.1.15,2013-01-14 03:38:00,
2013-01-13 19:43:00,36.2,11.1,30.08,East,99,0.0,0.0,35,0.00,,,0.00,Wunderground v.1.15,2013-01-14 03:43:00,
2013-01-13 19:48:00,35.8,10.8,30.08,East,97,0.0,0.0,35,0.00,,,0.00,Wunderground v.1.15,2013-01-14 03:48:00,
2013-01-13 19:53:00,35.3,10.3,30.09,East,98,0.0,2.0,35,0.00,,,0.00,Wunderground v.1.15,2013-01-14 03:53:00,
2013-01-13 19:58:00,35.2,10.2,30.09,ESE,104,0.0,2.0,35,0.00,,,0.00,Wunderground v.1.15,2013-01-14 03:58:00,
2013-01-13 20:03:00,35.1,10.2,30.08,ESE,106,0.0,0.0,35,0.00,,,0.00,Wunderground v.1.15,2013-01-14 04:03:00,
2013-01-13 20:08:00,34.8,9.9,30.08,East,80,0.0,0.0,35,0.00,,,0.00,Wunderground v.1.15,2013-01-14 04:08:00,
2013-01-13 20:13:00,34.4,10.2,30.08,East,80,0.0,0.0,36,0.00,,,0.00,Wunderground v.1.15,2013-01-14 04:13:00,
2013-01-13 20:18:00,34.3,10.7,30.09,ENE,78,0.0,0.0,37,0.00,,,0.00,Wunderground v.1.15,2013-01-14 04:18:00,
2013-01-13 20:23:00,34.1,9.9,30.09,East,94,3.0,6.0,36,0.00,,,0.00,Wunderground v.1.15,2013-01-14 04:23:00,
2013-01-13 20:28:00,34.4,9.5,30.09,East,87,3.0,6.0,35,0.00,,,0.00,Wunderground v.1.15,2013-01-14 04:28:00,
2013-01-13 20:33:00,34.7,9.1,30.08,SE,128,3.0,3.0,34,0.00,,,0.00,Wunderground v.1.15,2013-01-14 04:33:00,
2013-01-13 20:38:00,34.8,9.9,30.08,East,95,0.0,3.0,35,0.00,,,0.00,Wunderground v.1.15,2013-01-14 04:38:00,
2013-01-13 20:43:00,34.4,10.2,30.08,ESE,105,0.0,1.0,36,0.00,,,0.00,Wunderground v.1.15,2013-01-14 04:43:00,
2013-01-13 20:48:00,34.2,10.6,30.09,East,94,0.0,3.0,37,0.00,,,0.00,Wunderground v.1.15,2013-01-14 04:48:00,
2013-01-13 20:53:00,33.8,10.2,30.09,East,82,1.0,3.0,37,0.00,,,0.00,Wunderground v.1.15,2013-01-14 04:53:00,
2013-01-13 20:58:00,33.8,10.2,30.09,East,86,0.0,4.0,37,0.00,,,0.00,Wunderground v.1.15,2013-01-14 04:58:00,
2013-01-13 21:03:00,34.0,9.8,30.08,ESE,117,0.0,4.0,36,0.00,,,0.00,Wunderground v.1.15,2013-01-14 05:03:00,
2013-01-13 21:04:00,34.0,9.8,30.08,ENE,78,3.0,4.0,36,0.00,,,0.00,Wunderground v.1.15,2013-01-14 05:04:00,
2013-01-13 21:09:00,34.4,9.5,30.08,SE,132,1.0,6.0,35,0.00,,,0.00,Wunderground v.1.15,2013-01-14 05:09:00,
2013-01-13 21:14:00,34.4,9.5,30.08,ESE,107,0.0,7.0,35,0.00,,,0.00,Wunderground v.1.15,2013-01-14 05:14:00,
2013-01-13 21:19:00,34.4,9.5,30.08,SE,134,4.0,7.0,35,0.00,,,0.00,Wunderground v.1.15,2013-01-14 05:19:00,
2013-01-13 21:24:00,34.4,9.5,30.09,East,101,0.0,5.0,35,0.00,,,0.00,Wunderground v.1.15,2013-01-14 05:24:00,
2013-01-13 21:29:00,34.4,8.9,30.09,ENE,67,4.0,9.0,34,0.00,,,0.00,Wunderground v.1.15,2013-01-14 05:29:00,
2013-01-13 21:34:00,34.5,9.0,30.08,ENE,77,4.0,8.0,34,0.00,,,0.00,Wunderground v.1.15,2013-01-14 05:34:00,
2013-01-13 21:39:00,34.8,9.2,30.09,East,92,3.0,11.0,34,0.00,,,0.00,Wunderground v.1.15,2013-01-14 05:39:00,
2013-01-13 21:44:00,34.8,9.2,30.09,ESE,116,4.0,9.0,34,0.00,,,0.00,Wunderground v.1.15,2013-01-14 05:44:00,
2013-01-13 21:49:00,34.8,9.2,30.09,ESE,107,2.0,3.0,34,0.00,,,0.00,Wunderground v.1.15,2013-01-14 05:49:00,
2013-01-13 21:54:00,34.6,9.1,30.09,East,101,3.0,6.0,34,0.00,,,0.00,Wunderground v.1.15,2013-01-14 05:54:00,
2013-01-13 22:00:00,34.4,8.9,30.10,East,84,4.0,4.0,34,0.00,,,0.00,Wunderground v.1.15,2013-01-14 06:00:00,
2013-01-13 22:05:00,34.4,8.9,30.09,ESE,103,3.0,12.0,34,0.00,,,0.00,Wunderground v.1.15,2013-01-14 06:05:00,
2013-01-13 22:10:00,34.4,8.9,30.09,SE,127,4.0,6.0,34,0.00,,,0.00,Wunderground v.1.15,2013-01-14 06:10:00,
2013-01-13 22:15:00,34.2,8.7,30.09,East,96,3.0,7.0,34,0.00,,,0.00,Wunderground v.1.15,2013-01-14 06:15:00,
2013-01-13 22:20:00,34.1,8.6,30.09,ESE,109,5.0,6.0,34,0.00,,,0.00,Wunderground v.1.15,2013-01-14 06:20:00,
2013-01-13 22:25:00,33.9,8.4,30.09,East,88,6.0,7.0,34,0.00,,,0.00,Wunderground v.1.15,2013-01-14 06:25:00,
2013-01-13 22:30:00,33.8,8.4,30.09,East,90,2.0,5.0,34,0.00,,,0.00,Wunderground v.1.15,2013-01-14 06:30:00,
2013-01-13 22:35:00,33.6,8.2,30.09,East,95,3.0,10.0,34,0.00,,,0.00,Wunderground v.1.15,2013-01-14 06:35:00,
2013-01-13 22:40:00,33.6,8.2,30.09,East,101,2.0,3.0,34,0.00,,,0.00,Wunderground v.1.15,2013-01-14 06:40:00,
2013-01-13 22:45:00,33.7,7.6,30.10,ESE,113,6.0,7.0,33,0.00,,,0.00,Wunderground v.1.15,2013-01-14 06:45:00,
2013-01-13 22:50:00,33.8,7.7,30.10,East,95,7.0,10.0,33,0.00,,,0.00,Wunderground v.1.15,2013-01-14 06:50:00,
2013-01-13 22:55:00,33.9,7.8,30.10,NE,37,3.0,11.0,33,0.00,,,0.00,Wunderground v.1.15,2013-01-14 06:55:00,
2013-01-13 23:00:00,33.8,7.7,30.10,ESE,119,4.0,10.0,33,0.00,,,0.00,Wunderground v.1.15,2013-01-14 07:00:00,
2013-01-13 23:05:00,33.7,7.6,30.10,East,80,5.0,10.0,33,0.00,,,0.00,Wunderground v.1.15,2013-01-14 07:05:00,
2013-01-13 23:11:00,33.7,7.6,30.10,ENE,69,2.0,7.0,33,0.00,,,0.00,Wunderground v.1.15,2013-01-14 07:11:00,
2013-01-13 23:16:00,33.6,7.5,30.10,East,83,2.0,10.0,33,0.00,,,0.00,Wunderground v.1.15,2013-01-14 07:16:00,
2013-01-13 23:21:00,33.5,7.4,30.11,ESE,103,4.0,7.0,33,0.00,,,0.00,Wunderground v.1.15,2013-01-14 07:21:00,
2013-01-13 23:26:00,33.4,7.3,30.11,SE,128,5.0,9.0,33,0.00,,,0.00,Wunderground v.1.15,2013-01-14 07:26:00,
2013-01-13 23:31:00,33.2,7.2,30.11,ENE,69,3.0,7.0,33,0.00,,,0.00,Wunderground v.1.15,2013-01-14 07:31:00,
2013-01-13 23:36:00,33.1,7.1,30.11,SE,133,1.0,8.0,33,0.00,,,0.00,Wunderground v.1.15,2013-01-14 07:36:00,
2013-01-13 23:41:00,33.0,7.0,30.11,East,84,0.0,5.0,33,0.00,,,0.00,Wunderground v.1.15,2013-01-14 07:41:00,
2013-01-13 23:46:00,33.0,7.0,30.12,ESE,111,2.0,7.0,33,0.00,,,0.00,Wunderground v.1.15,2013-01-14 07:46:00,
2013-01-13 23:51:00,32.9,6.9,30.12,NE,45,3.0,7.0,33,0.00,,,0.00,Wunderground v.1.15,2013-01-14 07:51:00,
2013-01-13 23:56:00,32.9,6.2,30.12,East,94,3.0,7.0,32,0.00,,,0.00,Wunderground v.1.15,2013-01-14 07:56:00,